SAS47D LIRN-EKCH

Flight info

Callsign SAS47D
Flight time N/A
Altitude 38000
Route BEDPI DCT MOLUX DCT XAMIT DCT SIMBA DCT RUDNO DCT ARMUT DCT MAG DCT BKD/N0444F390 DCT NOBRI/N0440F380 M726 ROSOK Q296 MONAK
Aircraft A20N/M-SDE2E3FGHIRWXY/LB1

Departure

Time 2026-05-07 12:36
Airport Naples International Airport (LIRN)

Arrival

Time N/A
Airport Copenhagen Kastrup Airport (EKCH)
Time Latitude Longitude Altitude Speed Heading
2026-05-07 11:59 40.87871 14.28408 294 ft 0 kts 185°
2026-05-07 12:19 40.87887 14.28410 297 ft 4 kts 186°
2026-05-07 12:19 40.87913 14.28411 297 ft 4 kts 168°
2026-05-07 12:19 40.87936 14.28397 296 ft 4 kts 121°
2026-05-07 12:19 40.87941 14.28380 296 ft 1 kts 98°
2026-05-07 12:20 40.87942 14.28378 291 ft 0 kts 98°
2026-05-07 12:25 40.87941 14.28383 295 ft 2 kts 98°
2026-05-07 12:25 40.87936 14.28418 291 ft 6 kts 100°
2026-05-07 12:25 40.87953 14.28479 290 ft 9 kts 42°
2026-05-07 12:25 40.88014 14.28553 287 ft 14 kts 51°
2026-05-07 12:26 40.88077 14.28662 287 ft 15 kts 53°
2026-05-07 12:26 40.88150 14.28788 281 ft 19 kts 52°
2026-05-07 12:26 40.88237 14.28940 277 ft 23 kts 52°
2026-05-07 12:26 40.88327 14.29096 271 ft 14 kts 53°
2026-05-07 12:27 40.88398 14.29219 265 ft 20 kts 53°
2026-05-07 12:27 40.88490 14.29379 259 ft 25 kts 52°
2026-05-07 12:27 40.88566 14.29509 253 ft 17 kts 52°
2026-05-07 12:27 40.88646 14.29648 250 ft 21 kts 52°
2026-05-07 12:28 40.88744 14.29818 243 ft 25 kts 53°
2026-05-07 12:28 40.88826 14.29959 241 ft 17 kts 52°
2026-05-07 12:28 40.88899 14.30085 239 ft 15 kts 52°
2026-05-07 12:28 40.88955 14.30184 235 ft 12 kts 53°
2026-05-07 12:29 40.89018 14.30293 228 ft 17 kts 53°
2026-05-07 12:29 40.89046 14.30341 225 ft 8 kts 52°
2026-05-07 12:29 40.89072 14.30384 224 ft 4 kts 52°
2026-05-07 12:29 40.89094 14.30422 225 ft 4 kts 51°
2026-05-07 12:30 40.89121 14.30450 223 ft 0 kts 17°
2026-05-07 12:33 40.89122 14.30450 222 ft 1 kts 17°
2026-05-07 12:34 40.89129 14.30452 222 ft 2 kts 13°
2026-05-07 12:34 40.89164 14.30450 223 ft 8 kts 343°
2026-05-07 12:34 40.89209 14.30414 224 ft 5 kts 326°
2026-05-07 12:34 40.89221 14.30388 226 ft 2 kts 279°
2026-05-07 12:35 40.89213 14.30364 225 ft 2 kts 236°
2026-05-07 12:35 40.89212 14.30361 224 ft 0 kts 233°
2026-05-07 12:35 40.89206 14.30352 225 ft 7 kts 235°
2026-05-07 12:35 40.89063 14.30049 239 ft 76 kts 238°
2026-05-07 12:36 40.88662 14.29203 262 ft 138 kts 238°
2026-05-07 12:36 40.88082 14.27972 541 ft 166 kts 238°
2026-05-07 12:36 40.87421 14.26723 1280 ft 167 kts 228°
2026-05-07 12:36 40.86593 14.25651 2062 ft 166 kts 221°
2026-05-07 12:37 40.85731 14.24669 2861 ft 160 kts 221°
2026-05-07 12:37 40.84843 14.23844 3512 ft 164 kts 196°
2026-05-07 12:37 40.83652 14.23873 3931 ft 184 kts 165°
2026-05-07 12:37 40.82390 14.24382 4628 ft 191 kts 160°
2026-05-07 12:38 40.81129 14.24955 5390 ft 193 kts 160°
2026-05-07 12:38 40.79839 14.25518 6113 ft 199 kts 161°
2026-05-07 12:38 40.78493 14.26059 6742 ft 206 kts 162°
2026-05-07 12:38 40.77113 14.26564 7498 ft 203 kts 164°
2026-05-07 12:39 40.75760 14.27024 8342 ft 198 kts 166°
2026-05-07 12:39 40.74433 14.27459 9105 ft 199 kts 167°
2026-05-07 12:39 40.73059 14.27953 9639 ft 211 kts 157°
2026-05-07 12:39 40.71950 14.29203 10282 ft 214 kts 123°
2026-05-07 12:40 40.71509 14.31089 10889 ft 222 kts 94°
2026-05-07 12:40 40.71761 14.33125 11449 ft 232 kts 78°
2026-05-07 12:40 40.72139 14.35302 11594 ft 258 kts 81°
2026-05-07 12:40 40.72500 14.37706 12026 ft 270 kts 82°
2026-05-07 12:41 40.72844 14.40124 12902 ft 267 kts 83°
2026-05-07 12:41 40.73380 14.42462 13545 ft 276 kts 62°
2026-05-07 12:41 40.74672 14.44369 14104 ft 285 kts 33°
2026-05-07 12:41 40.76419 14.45718 14496 ft 301 kts 26°
2026-05-07 12:42 40.78369 14.46989 14717 ft 323 kts 25°
2026-05-07 12:42 40.80464 14.48337 14923 ft 345 kts 25°
2026-05-07 12:42 40.82675 14.49813 15129 ft 366 kts 26°
2026-05-07 12:42 40.84993 14.51409 15373 ft 384 kts 27°
2026-05-07 12:43 40.87378 14.53089 15940 ft 391 kts 27°
2026-05-07 12:43 40.89783 14.54814 16604 ft 395 kts 27°
2026-05-07 12:43 40.92191 14.56534 17240 ft 399 kts 26°
2026-05-07 12:43 40.94654 14.58273 17879 ft 404 kts 26°
2026-05-07 12:44 40.97152 14.60033 18489 ft 408 kts 26°
2026-05-07 12:44 40.99664 14.61805 19077 ft 411 kts 26°
2026-05-07 12:44 41.02209 14.63604 19633 ft 415 kts 26°
2026-05-07 12:44 41.04766 14.65417 20225 ft 418 kts 25°
2026-05-07 12:45 41.07363 14.67071 20715 ft 421 kts 19°
2026-05-07 12:45 41.10092 14.68564 21238 ft 425 kts 19°
2026-05-07 12:45 41.12834 14.70080 21761 ft 429 kts 19°
2026-05-07 12:45 41.15591 14.71619 22322 ft 431 kts 19°
2026-05-07 12:46 41.18368 14.73175 22833 ft 436 kts 19°
2026-05-07 12:46 41.21175 14.74751 23355 ft 440 kts 19°
2026-05-07 12:46 41.24005 14.76342 23829 ft 443 kts 19°
2026-05-07 12:46 41.26812 14.78093 24262 ft 448 kts 23°
2026-05-07 12:47 41.29702 14.79647 24653 ft 447 kts 12°
2026-05-07 12:47 41.32731 14.80486 25146 ft 442 kts
2026-05-07 12:47 41.35796 14.80655 25572 ft 440 kts 354°
2026-05-07 12:47 41.38865 14.80631 26029 ft 442 kts 354°
2026-05-07 12:48 41.41955 14.80619 26492 ft 444 kts 354°
2026-05-07 12:48 41.45031 14.80609 26925 ft 446 kts 354°
2026-05-07 12:48 41.48146 14.80599 27357 ft 448 kts 353°
2026-05-07 12:48 41.51230 14.80589 27782 ft 450 kts 353°
2026-05-07 12:49 41.54364 14.80578 28185 ft 452 kts 353°
2026-05-07 12:49 41.57520 14.80566 28570 ft 453 kts 353°
2026-05-07 12:49 41.60680 14.80553 28943 ft 455 kts 353°
2026-05-07 12:49 41.63865 14.80540 29316 ft 457 kts 353°
2026-05-07 12:50 41.67047 14.80526 29669 ft 460 kts 353°
2026-05-07 12:50 41.70263 14.80513 29996 ft 463 kts 353°
2026-05-07 12:50 41.72402 14.80504 30216 ft 464 kts 353°
2026-05-07 12:50 41.75640 14.80489 30484 ft 466 kts 352°
2026-05-07 12:51 41.78893 14.80470 30816 ft 468 kts 352°
2026-05-07 12:51 41.82152 14.80451 31118 ft 470 kts 352°
2026-05-07 12:51 41.85426 14.80441 31453 ft 470 kts 352°
2026-05-07 12:51 41.88697 14.80433 31819 ft 470 kts 352°
2026-05-07 12:52 41.91968 14.80420 32199 ft 469 kts 352°
2026-05-07 12:52 41.95230 14.80409 32526 ft 470 kts 352°
2026-05-07 12:52 41.98500 14.80394 32974 ft 469 kts 352°
2026-05-07 12:52 42.01729 14.80372 33384 ft 469 kts 352°
2026-05-07 12:53 42.04987 14.80359 33813 ft 468 kts 352°
2026-05-07 12:53 42.08245 14.80346 34182 ft 467 kts 352°
2026-05-07 12:53 42.11507 14.80336 34418 ft 467 kts 352°
2026-05-07 12:53 42.14763 14.80325 34704 ft 466 kts 352°
2026-05-07 12:54 42.18007 14.80312 34977 ft 465 kts 352°
2026-05-07 12:54 42.21246 14.80299 35241 ft 464 kts 352°
2026-05-07 12:54 42.24433 14.80285 35499 ft 463 kts 352°
2026-05-07 12:54 42.27656 14.80269 35773 ft 462 kts 352°
2026-05-07 12:55 42.30876 14.80252 35980 ft 462 kts 352°
2026-05-07 12:55 42.34099 14.80236 36223 ft 462 kts 352°
2026-05-07 12:55 42.37312 14.80222 36466 ft 461 kts 352°
2026-05-07 12:55 42.40512 14.80207 36684 ft 460 kts 352°
2026-05-07 12:56 42.43716 14.80190 36895 ft 460 kts 352°
2026-05-07 12:56 42.46912 14.80175 37114 ft 459 kts 352°
2026-05-07 12:56 42.50104 14.80158 37260 ft 459 kts 353°
2026-05-07 12:56 42.53299 14.80142 37434 ft 459 kts 353°
2026-05-07 12:57 42.56493 14.80128 37621 ft 459 kts 353°
2026-05-07 12:57 42.59684 14.80114 37798 ft 458 kts 353°
2026-05-07 12:57 42.62874 14.80098 37966 ft 458 kts 353°
2026-05-07 12:57 42.66020 14.80083 38008 ft 458 kts 353°
2026-05-07 12:58 42.72375 14.80053 38009 ft 456 kts 353°
2026-05-07 12:58 42.78734 14.80023 38009 ft 457 kts 353°
2026-05-07 12:59 42.85093 14.79993 38010 ft 457 kts 353°
2026-05-07 12:59 42.91413 14.79963 38004 ft 456 kts 353°
2026-05-07 13:00 42.97748 14.79935 37996 ft 454 kts 353°
2026-05-07 13:00 43.04066 14.79905 37993 ft 453 kts 353°
2026-05-07 13:01 43.10382 14.79874 37991 ft 453 kts 353°
2026-05-07 13:01 43.16723 14.79841 38014 ft 458 kts 353°
2026-05-07 13:02 43.23054 14.79813 38013 ft 457 kts 353°
2026-05-07 13:02 43.29402 14.79669 38019 ft 455 kts 348°
2026-05-07 13:03 43.35597 14.78285 38014 ft 446 kts 339°
2026-05-07 13:03 43.41634 14.76272 38013 ft 447 kts 340°
2026-05-07 13:04 43.47676 14.74287 38016 ft 447 kts 339°
2026-05-07 13:04 43.53725 14.72278 37994 ft 446 kts 339°
2026-05-07 13:05 43.59757 14.70268 37993 ft 446 kts 339°
2026-05-07 13:05 43.65792 14.68246 37994 ft 446 kts 339°
2026-05-07 13:06 43.71828 14.66221 38013 ft 447 kts 339°
2026-05-07 13:06 43.77916 14.64171 38017 ft 451 kts 339°
2026-05-07 13:07 43.84015 14.62119 38018 ft 450 kts 339°
2026-05-07 13:07 43.90103 14.60066 38018 ft 450 kts 339°
2026-05-07 13:08 43.96156 14.58017 38018 ft 450 kts 339°
2026-05-07 13:08 44.02254 14.55950 38020 ft 450 kts 339°
2026-05-07 13:09 44.08347 14.53879 38007 ft 451 kts 339°
2026-05-07 13:09 44.14423 14.51809 38011 ft 452 kts 339°
2026-05-07 13:10 44.20535 14.49724 38010 ft 452 kts 339°
2026-05-07 13:10 44.26657 14.47632 38014 ft 452 kts 339°
2026-05-07 13:11 44.32784 14.45532 38020 ft 453 kts 340°
2026-05-07 13:11 44.38916 14.43427 38020 ft 454 kts 340°
2026-05-07 13:12 44.45045 14.41316 38019 ft 453 kts 339°
2026-05-07 13:12 44.51143 14.39214 38023 ft 454 kts 340°
2026-05-07 13:13 44.57302 14.37088 38021 ft 454 kts 340°
2026-05-07 13:13 44.63444 14.34964 38018 ft 454 kts 339°
2026-05-07 13:14 44.69551 14.32844 38018 ft 455 kts 339°
2026-05-07 13:14 44.75701 14.30704 38022 ft 454 kts 339°
2026-05-07 13:15 44.81840 14.28561 38016 ft 454 kts 339°
2026-05-07 13:15 44.87969 14.26420 38030 ft 453 kts 339°
2026-05-07 13:16 44.94094 14.24274 38029 ft 453 kts 339°
2026-05-07 13:16 45.00234 14.22119 38009 ft 454 kts 339°
2026-05-07 13:17 45.06329 14.19976 38006 ft 454 kts 339°
2026-05-07 13:17 45.12473 14.17811 38000 ft 454 kts 339°
2026-05-07 13:18 45.18603 14.15646 37998 ft 454 kts 339°
2026-05-07 13:18 45.24752 14.13467 38003 ft 457 kts 339°
2026-05-07 13:19 45.30947 14.11264 38013 ft 460 kts 340°
2026-05-07 13:19 45.37111 14.09076 38013 ft 458 kts 340°
2026-05-07 13:20 45.43317 14.06862 38007 ft 461 kts 340°
2026-05-07 13:20 45.49537 14.04641 38001 ft 460 kts 340°
2026-05-07 13:21 45.55759 14.02415 38009 ft 461 kts 340°
2026-05-07 13:21 45.61983 14.00181 38004 ft 462 kts 340°
2026-05-07 13:22 45.68204 13.97942 37995 ft 463 kts 340°
2026-05-07 13:22 45.74424 13.95701 38017 ft 461 kts 340°
2026-05-07 13:23 45.80665 13.93446 37994 ft 462 kts 340°
2026-05-07 13:23 45.86894 13.91190 38022 ft 462 kts 340°
2026-05-07 13:24 45.93138 13.88921 37995 ft 463 kts 340°
2026-05-07 13:24 45.99384 13.86648 37985 ft 462 kts 340°
2026-05-07 13:25 46.05603 13.84381 37973 ft 460 kts 340°
2026-05-07 13:25 46.11815 13.82109 37971 ft 460 kts 340°
2026-05-07 13:26 46.17991 13.79847 37961 ft 460 kts 340°
2026-05-07 13:26 46.24202 13.77568 37975 ft 462 kts 340°
2026-05-07 13:27 46.30464 13.75259 37973 ft 465 kts 340°
2026-05-07 13:27 46.36689 13.72965 37974 ft 463 kts 340°
2026-05-07 13:28 46.42952 13.70649 37960 ft 464 kts 340°
2026-05-07 13:28 46.49228 13.68324 37956 ft 464 kts 340°
2026-05-07 13:29 46.55460 13.66009 37969 ft 465 kts 340°
2026-05-07 13:29 46.61741 13.63669 37944 ft 466 kts 340°
2026-05-07 13:30 46.68007 13.61333 37943 ft 465 kts 340°
2026-05-07 13:30 46.74275 13.58983 37946 ft 464 kts 340°
2026-05-07 13:31 46.80538 13.56630 37947 ft 465 kts 340°
2026-05-07 13:31 46.86781 13.54281 37942 ft 464 kts 340°
2026-05-07 13:32 46.93036 13.51923 37937 ft 463 kts 340°
2026-05-07 13:32 46.99261 13.49573 37935 ft 461 kts 340°
2026-05-07 13:33 47.05509 13.47203 37962 ft 466 kts 340°
2026-05-07 13:33 47.11769 13.44823 37976 ft 468 kts 340°
2026-05-07 13:34 47.21183 13.41240 37977 ft 465 kts 340°
2026-05-07 13:35 47.27469 13.38835 37987 ft 466 kts 341°
2026-05-07 13:35 47.33747 13.36430 37982 ft 464 kts 341°
2026-05-07 13:36 47.39960 13.34044 37994 ft 465 kts 341°
2026-05-07 13:36 47.46224 13.31631 38001 ft 465 kts 341°
2026-05-07 13:37 47.52494 13.29213 38005 ft 464 kts 341°
2026-05-07 13:37 47.58764 13.26787 38003 ft 466 kts 341°
2026-05-07 13:38 47.64986 13.24376 38000 ft 465 kts 341°
2026-05-07 13:38 47.71246 13.21942 38011 ft 465 kts 341°
2026-05-07 13:39 47.77512 13.19500 38010 ft 464 kts 341°
2026-05-07 13:39 47.83761 13.17060 38004 ft 463 kts 341°
2026-05-07 13:40 47.88938 13.15033 37997 ft 461 kts 341°
2026-05-07 13:40 47.95140 13.12597 38008 ft 463 kts 341°
2026-05-07 13:41 48.01405 13.10132 38004 ft 465 kts 341°
2026-05-07 13:41 48.07665 13.07664 38005 ft 464 kts 341°
2026-05-07 13:42 48.13882 13.05212 38010 ft 465 kts 341°
2026-05-07 13:42 48.20140 13.02733 38005 ft 465 kts 341°
2026-05-07 13:43 48.26393 13.00214 38010 ft 465 kts 340°
2026-05-07 13:43 48.32591 12.97581 38027 ft 465 kts 340°
2026-05-07 13:44 48.38801 12.94948 38004 ft 461 kts 341°
2026-05-07 13:44 48.44991 12.92326 38007 ft 462 kts 341°
2026-05-07 13:45 48.51190 12.89699 38007 ft 462 kts 341°
2026-05-07 13:45 48.57345 12.87083 38008 ft 462 kts 341°
2026-05-07 13:46 48.63555 12.84438 38006 ft 462 kts 341°
2026-05-07 13:46 48.69756 12.81791 38005 ft 463 kts 341°
2026-05-07 13:47 48.75960 12.79135 38012 ft 463 kts 341°
2026-05-07 13:47 48.82138 12.76484 38025 ft 463 kts 341°
2026-05-07 13:48 48.88361 12.73808 38021 ft 464 kts 341°
2026-05-07 13:48 48.94533 12.71144 38021 ft 463 kts 341°
2026-05-07 13:49 49.00735 12.68463 38008 ft 463 kts 341°
2026-05-07 13:49 49.06961 12.65764 38012 ft 464 kts 341°
2026-05-07 13:50 49.13177 12.63063 38007 ft 464 kts 341°
2026-05-07 13:50 49.19348 12.60373 38003 ft 464 kts 341°
2026-05-07 13:51 49.25555 12.57661 38000 ft 463 kts 341°
2026-05-07 13:51 49.31748 12.54946 38007 ft 463 kts 341°
2026-05-07 13:52 49.37832 12.51730 38003 ft 462 kts 337°
2026-05-07 13:52 49.43877 12.48355 38003 ft 462 kts 337°
2026-05-07 13:53 49.49914 12.44974 38001 ft 462 kts 337°
2026-05-07 13:53 49.55910 12.41594 37998 ft 462 kts 337°
2026-05-07 13:54 49.61950 12.38179 37997 ft 461 kts 337°
2026-05-07 13:54 49.67982 12.34757 37992 ft 462 kts 337°
2026-05-07 13:55 49.74147 12.32013 37994 ft 464 kts 347°
2026-05-07 13:55 49.80565 12.30535 37987 ft 465 kts 349°
2026-05-07 13:56 49.86973 12.29074 37992 ft 465 kts 349°
2026-05-07 13:56 49.93368 12.27633 37989 ft 465 kts 349°
2026-05-07 13:57 49.99775 12.26195 37990 ft 464 kts 349°
2026-05-07 13:57 50.06142 12.24765 37980 ft 465 kts 350°
2026-05-07 13:58 50.12554 12.23322 37985 ft 465 kts 350°
2026-05-07 13:58 50.18925 12.21885 37989 ft 465 kts 350°
2026-05-07 13:59 50.25370 12.20427 37990 ft 465 kts 350°
2026-05-07 13:59 50.31747 12.18981 37992 ft 466 kts 350°
2026-05-07 14:00 50.38171 12.17518 37995 ft 466 kts 350°
2026-05-07 14:00 50.44588 12.16054 37992 ft 466 kts 350°
2026-05-07 14:01 50.51020 12.14582 37995 ft 466 kts 350°
2026-05-07 14:01 50.57434 12.13112 38015 ft 466 kts 350°
2026-05-07 14:02 50.63838 12.11640 38010 ft 465 kts 350°
2026-05-07 14:02 50.70240 12.10139 38013 ft 465 kts 349°
2026-05-07 14:03 50.76634 12.08640 38011 ft 464 kts 349°
2026-05-07 14:03 50.82995 12.07165 38013 ft 464 kts 349°
2026-05-07 14:04 50.89387 12.05683 38011 ft 463 kts 349°
2026-05-07 14:04 50.95775 12.04197 38020 ft 463 kts 349°
2026-05-07 14:05 51.02162 12.02706 38017 ft 463 kts 349°
2026-05-07 14:05 51.08536 12.01213 38012 ft 463 kts 349°
2026-05-07 14:06 51.14885 11.99721 38017 ft 464 kts 349°
2026-05-07 14:06 51.21294 11.98212 38033 ft 466 kts 349°
2026-05-07 14:07 51.27694 11.96702 38024 ft 462 kts 349°
2026-05-07 14:07 51.34048 11.95197 38023 ft 462 kts 350°
2026-05-07 14:08 51.40383 11.93688 38032 ft 463 kts 349°
2026-05-07 14:08 51.46754 11.92170 38031 ft 462 kts 350°
2026-05-07 14:09 51.53126 11.90647 38034 ft 462 kts 350°
2026-05-07 14:09 51.59490 11.89122 38037 ft 463 kts 350°
2026-05-07 14:10 51.65862 11.87590 38036 ft 462 kts 350°
2026-05-07 14:10 51.72224 11.86054 38040 ft 462 kts 350°
2026-05-07 14:11 51.78537 11.84526 38039 ft 462 kts 350°
2026-05-07 14:11 51.84891 11.82987 38035 ft 461 kts 350°
2026-05-07 14:12 51.91236 11.81446 38034 ft 461 kts 350°
2026-05-07 14:12 51.97583 11.79898 38043 ft 461 kts 350°
2026-05-07 14:13 52.03933 11.78375 38047 ft 461 kts 350°
2026-05-07 14:13 52.10243 11.76910 38045 ft 461 kts 350°
2026-05-07 14:14 52.16584 11.75430 38049 ft 461 kts 350°
2026-05-07 14:14 52.22861 11.73956 38051 ft 462 kts 350°
2026-05-07 14:15 52.29230 11.72457 38062 ft 463 kts 350°
2026-05-07 14:15 52.35600 11.70952 38056 ft 462 kts 350°
2026-05-07 14:16 52.41957 11.69440 38053 ft 461 kts 350°
2026-05-07 14:16 52.48276 11.67937 38052 ft 462 kts 350°
2026-05-07 14:17 52.54633 11.66423 38058 ft 462 kts 350°
2026-05-07 14:17 52.60995 11.64899 38061 ft 461 kts 350°
2026-05-07 14:18 52.67364 11.63371 38056 ft 461 kts 350°
2026-05-07 14:18 52.73730 11.61837 38064 ft 462 kts 350°
2026-05-07 14:19 52.80045 11.60313 38060 ft 461 kts 350°
2026-05-07 14:19 52.86404 11.58774 38057 ft 461 kts 350°
2026-05-07 14:20 52.92758 11.57231 38063 ft 461 kts 350°
2026-05-07 14:20 52.99117 11.55687 38059 ft 460 kts 351°
2026-05-07 14:21 53.05493 11.55278 38058 ft 462 kts
2026-05-07 14:21 53.11886 11.56438 38055 ft 462 kts
2026-05-07 14:22 53.18271 11.57708 38057 ft 462 kts
2026-05-07 14:22 53.24616 11.59143 38049 ft 462 kts 11°
2026-05-07 14:23 53.30830 11.61985 38051 ft 463 kts 15°
2026-05-07 14:23 53.37019 11.65001 38053 ft 463 kts 15°
2026-05-07 14:24 53.43223 11.68050 38056 ft 464 kts 15°
2026-05-07 14:24 53.49389 11.71127 38055 ft 464 kts 15°
2026-05-07 14:25 53.55580 11.74235 38060 ft 465 kts 15°
2026-05-07 14:25 53.61792 11.77366 38067 ft 465 kts 15°
2026-05-07 14:26 53.68003 11.80501 38071 ft 465 kts 15°